Regional Weather Roundup
Issued by NWS

Home | Current Version | Previous Version | Text Only | Print | Product List | Glossary On
Versions: 1 2 3 4 5 6 7 8 9 10 11 12 13 14 15 16 17 18 19 20 21 22 23 24 25 26 27 28 29 30 31 32 33 34 35 36 37 38 39 40 41 42 43 44 45 46 47 48 49 50
000
ASUS43 KDTX 211901
RWRMI
MICHIGAN HOURLY REGIONAL WEATHER ROUNDUP
NATIONAL WEATHER SERVICE DETROIT/PONTIAC MI
200 PM EST TUE NOV 21 2017

NOTE: "FAIR" INDICATES FEW OR NO CLOUDS BELOW 12,000 FEET WITH NO
SIGNIFICANT WEATHER AND/OR OBSTRUCTION TO VISIBILITY.

MIZ047>049-052>055-059>063-066>070-074>076-081>083-212000-
SOUTHEAST LOWER MICHIGAN

CITY           SKY/WX    TMP DP  RH WIND       PRES   REMARKS
ADRIAN         CLOUDY    47  32  56 W9G18     29.78S
ALMA           CLOUDY    42  33  68 SW14G24   29.72R
ANN ARBOR      CLOUDY    48  33  56 SW14G25   29.75R
BAD AXE        CLOUDY    47  34  59 SW20G29   29.68R
CARO           LGT RAIN  44  40  86 SW15G22   29.70R
DETROIT CITY   CLOUDY    50  32  50 SW12G22   29.75R
DETROIT        CLOUDY    49  32  52 SW16      29.76R
FLINT          CLOUDY    46  36  68 W14G26    29.73R
GROSSE ILE     CLOUDY    48  33  54 W14       29.76R
HILLSDALE      CLOUDY    45  32  61 SW9G20    29.76S
HOWELL         CLOUDY    47  34  61 W15G25    29.73R

CITY           SKY/WX    TMP DP  RH WIND       PRES   REMARKS
JACKSON        CLOUDY    48  31  51 SW16G22   29.75R
LAMBERTVILLE   PTSUNNY   51  33  49 W10G21    29.78S
LANSING        LGT RAIN  42  38  85 W16G28    29.76R
LAPEER         CLOUDY    48  32  53 W10G21    29.71R
MASON          CLOUDY    47  36  66 W10G20    29.75R
MONROE         CLOUDY    50  33  51 SW16      29.76S
MT. CLEMENS    CLOUDY    49  33  54 SW10      29.72R
PONTIAC        CLOUDY    49  32  52 W13       29.72R
PORT HOPE        N/A     49  35  58 W13G23    29.64R
PORT HURON     MOSUNNY   48  30  49 SW9       29.72R
TRI CITIES     CLOUDY    46  33  60 W21G29    29.71R
MIDLAND        CLOUDY    46  32  60 W12G21    29.69R
TROY           MOSUNNY   52  31  44 SW8       29.75R
SAGINAW HB     CLOUDY    45  34  65 W14G25    29.71R
$$
MIZ043>046-050>051-056>058-064>065-071>073-077>080-212000-
SOUTHWEST LOWER MICHIGAN

CITY           SKY/WX    TMP DP  RH WIND       PRES   REMARKS
BATTLE CREEK   LGT RAIN  41  37  86 W13       29.79R
BENTON HARBOR  LGT RAIN  42  34  73 W7        29.81R
BIG RAPIDS     CLOUDY    38  22  51 NW12G18   29.73R WCI  31
COLDWATER      CLOUDY    47  31  55 W13G21    29.78R
FREMONT        FAIR      39  27  60 W18G26    29.76R WCI  30
HOLLAND        CLOUDY    42  29  59 NW14G22   29.79R
GRAND RAPIDS   LGT RAIN  40  39  97 SW14      29.76R WCI  32
IONIA          LGT RAIN  40  36  86 SW15      29.75R WCI  32
KALAMAZOO      LGT RAIN  40  35  83 W10       29.80R WCI  33
LUDINGTON      CLOUDY    38  22  53 NW9G16    29.78R WCI  31
MARSHALL       RAIN      43  37  80 W16G23    29.78R
MOUNT PLEASANT CLOUDY    44  25  47 W12G24    29.70R
MUSKEGON       CLOUDY    40  24  53 NW15G25   29.78R WCI  32
SOUTH HAVEN    CLOUDY    42  35  78 W6        29.79S
$$
MIZ016>042-212000-
NORTHERN LOWER MICHIGAN

CITY           SKY/WX    TMP DP  RH WIND       PRES   REMARKS
ALPENA         CLOUDY    40  27  59 NW18G26   29.65R WCI  31
BEAVER ISLAND  CLOUDY    34  25  70 NW17G28   29.72R WCI  23
BELLAIRE       CLOUDY    37  29  73 NW10G18   29.74R WCI  29
CADILLAC       CLOUDY    35  23  61 NW14G22   29.71R WCI  26
CHARLEVOIX     CLOUDY    35  22  60 W22G30    29.75R HAZE    WCI  23
FRANKFORT      CLOUDY    37  23  57 W15G25    29.78R WCI  28
GAYLORD        FLURRIES  32  23  69 NW13G22   29.68R WCI  22
GRAYLING       CLOUDY    38  21  51 NW15G29   29.69R WCI  29
HARBOR SPRINGS CLOUDY    34  19  54 W20G28    29.70R WCI  23
MANISTEE       CLOUDY    37  22  54 NW17G23   29.78R WCI  27
OSCODA         CLOUDY    46  22  37 W16G28    29.64R
PELLSTON       CLOUDY    35  20  54 NW17G29   29.70R WCI  25
ROGERS CITY    CLOUDY    37  24  60 NW9G22    29.67R WCI  30
TRAVERSE CITY  CLOUDY    38  24  57 W21       29.74R WCI  28
$$
MIZ007>008-015-212000-
EASTERN UPPER MICHIGAN

CITY           SKY/WX    TMP DP  RH WIND       PRES   REMARKS
KINROSS        FLURRIES  31  24  75 NW26G33   29.65R WCI  17
MACKINAC ISLAN CLOUDY    35  22  58 W22G31    29.67R WCI  23
NEWBERRY       CLOUDY    28  21  74 NW26G35   29.69R WCI  13
S. S. MARIE    CLOUDY    33  22  63 W21G38    29.63R WCI  21
MUNISING         N/A     29  24  82 NW25G43   29.77R WCI  14
$$
MIZ004>006-011>014-085-212000-
CENTRAL UPPER MICHIGAN

CITY           SKY/WX    TMP DP  RH WIND       PRES   REMARKS
ESCANABA       CLOUDY    30  16  56 NW20G31   29.80R WCI  17
MENOMINEE      CLOUDY    32  14  47 NW12G24   29.83R WCI  23
SAWYER-GWINN   FLURRIES  25  16  68 NW18G33   29.77R WCI  11
$$
MIZ001>003-009>011-084-212000-
WESTERN UPPER MICHIGAN

CITY           SKY/WX    TMP DP  RH WIND       PRES   REMARKS
IRON MOUNTAIN  LGT SNOW  26  14  60 NW21G30   29.81R WCI  12
HOUGHTON       LGT SNOW  20  12  71 NW20G31   29.84R WCI   4
COPPER HARBOR    N/A     26  18  71 N29G39    29.81R WCI  10
IRONWOOD       FLURRIES  21  13  71 NW17G25   29.95R WCI   7
$$

ABBREVIATIONS USED IN REMARKS
   TC - TEMPERATURE IN CELSIUS
  WCI - WIND CHILL INDEX
   HX - HEAT INDEX
  VSB - VISIBILITY





USA.gov is the U.S. government's official web portal to all federal, state and local government web resources and services.